contact:dominique.lefevre@mio.osupytheas.fr, maurice.libes@osupytheas.fr, didier.mallarino@osupytheas.fr
Project:EMSO http://www.emso-fr.org/EMSO-France
Depth: 2436.0 m
Title:EMSO Ligure Ouest : Data MII capteur MICROCAT
DateTime_Computer,Latitude,Longitude,Temperature,Conductivity,Pressure,DateTime_Instrument
DateTime_Computer,Latitude,Longitude,degC,S m-1,dbar,DateTime_Instrument
2023-09-26T00:01:15Z,42.805,6.029,13.3034,4.60102,2470.661,2023-9-26T02:03:37Z
2023-09-26T00:04:18Z,42.805,6.029,13.3034,4.60104,2470.646,2023-9-26T02:06:41Z
2023-09-26T00:07:21Z,42.805,6.029,13.3036,4.60111,2470.661,2023-9-26T02:09:44Z
2023-09-26T00:10:24Z,42.805,6.029,13.3036,4.60104,2470.661,2023-9-26T02:12:47Z
2023-09-26T00:13:27Z,42.805,6.029,13.3036,4.60105,2470.646,2023-9-26T02:15:50Z
2023-09-26T00:16:30Z,42.805,6.029,13.3035,4.60111,2470.661,2023-9-26T02:18:53Z
2023-09-26T00:19:33Z,42.805,6.029,13.3035,4.60111,2470.646,2023-9-26T02:21:56Z
2023-09-26T00:22:36Z,42.805,6.029,13.3036,4.60108,2470.661,2023-9-26T02:24:59Z
2023-09-26T00:25:39Z,42.805,6.029,13.3036,4.60103,2470.67,2023-9-26T02:28:02Z
2023-09-26T00:28:42Z,42.805,6.029,13.3032,4.60104,2470.661,2023-9-26T02:31:05Z
2023-09-26T00:31:45Z,42.805,6.029,13.3033,4.60104,2470.707,2023-9-26T02:34:08Z
2023-09-26T00:34:48Z,42.805,6.029,13.3036,4.60102,2470.693,2023-9-26T02:37:11Z
2023-09-26T00:37:52Z,42.805,6.029,13.3036,4.60105,2470.67,2023-9-26T02:40:14Z
2023-09-26T00:40:55Z,42.805,6.029,13.3039,4.60104,2470.67,2023-9-26T02:43:18Z
2023-09-26T00:43:58Z,42.805,6.029,13.3036,4.60102,2470.646,2023-9-26T02:46:21Z
2023-09-26T00:47:01Z,42.805,6.029,13.3037,4.60103,2470.67,2023-9-26T02:49:24Z
2023-09-26T00:50:04Z,42.805,6.029,13.3037,4.60101,2470.67,2023-9-26T02:52:27Z
2023-09-26T00:53:07Z,42.805,6.029,13.3039,4.60111,2470.684,2023-9-26T02:55:30Z
2023-09-26T00:56:10Z,42.805,6.029,13.3036,4.60103,2470.684,2023-9-26T02:58:33Z
2023-09-26T00:59:13Z,42.805,6.029,13.3034,4.60102,2470.67,2023-9-26T03:01:36Z
2023-09-26T01:02:16Z,42.805,6.029,13.3036,4.60102,2470.693,2023-9-26T03:04:39Z
2023-09-26T01:05:19Z,42.805,6.029,13.3035,4.60102,2470.67,2023-9-26T03:07:42Z
2023-09-26T01:08:22Z,42.805,6.029,13.3037,4.60104,2470.646,2023-9-26T03:10:45Z
2023-09-26T01:11:25Z,42.805,6.029,13.3036,4.60103,2470.693,2023-9-26T03:13:48Z
2023-09-26T01:14:29Z,42.805,6.029,13.3039,4.60103,2470.707,2023-9-26T03:16:51Z
2023-09-26T01:17:32Z,42.805,6.029,13.3042,4.60104,2470.693,2023-9-26T03:19:55Z
2023-09-26T01:20:35Z,42.805,6.029,13.3037,4.60104,2470.67,2023-9-26T03:22:58Z
2023-09-26T01:23:38Z,42.805,6.029,13.3037,4.60108,2470.707,2023-9-26T03:26:01Z
2023-09-26T01:26:41Z,42.805,6.029,13.3036,4.60110,2470.684,2023-9-26T03:29:04Z
2023-09-26T01:29:44Z,42.805,6.029,13.3037,4.60109,2470.67,2023-9-26T03:32:07Z
2023-09-26T01:32:47Z,42.805,6.029,13.3037,4.60114,2470.684,2023-9-26T03:35:10Z
2023-09-26T01:35:50Z,42.805,6.029,13.3036,4.60112,2470.67,2023-9-26T03:38:13Z
2023-09-26T01:38:53Z,42.805,6.029,13.3043,4.60114,2470.684,2023-9-26T03:41:16Z
2023-09-26T01:41:56Z,42.805,6.029,13.3040,4.60112,2470.707,2023-9-26T03:44:19Z
2023-09-26T01:44:59Z,42.805,6.029,13.3039,4.60117,2470.693,2023-9-26T03:47:22Z
2023-09-26T01:48:03Z,42.805,6.029,13.3037,4.60106,2470.661,2023-9-26T03:50:25Z
2023-09-26T01:51:06Z,42.805,6.029,13.3036,4.60107,2470.67,2023-9-26T03:53:29Z
2023-09-26T01:54:09Z,42.805,6.029,13.3039,4.60108,2470.717,2023-9-26T03:56:32Z
2023-09-26T01:57:12Z,42.805,6.029,13.3038,4.60116,2470.693,2023-9-26T03:59:35Z
2023-09-26T02:00:15Z,42.805,6.029,13.3038,4.60109,2470.717,2023-9-26T04:02:38Z
2023-09-26T02:03:18Z,42.805,6.029,13.3036,4.60107,2470.717,2023-9-26T04:05:41Z
2023-09-26T02:06:21Z,42.805,6.029,13.3039,4.60112,2470.67,2023-9-26T04:08:44Z
2023-09-26T02:09:24Z,42.805,6.029,13.3034,4.60122,2470.693,2023-9-26T04:11:47Z
2023-09-26T02:12:27Z,42.805,6.029,13.3038,4.60115,2470.693,2023-9-26T04:14:50Z
2023-09-26T02:15:30Z,42.805,6.029,13.3036,4.60118,2470.73,2023-9-26T04:17:53Z
2023-09-26T02:18:33Z,42.805,6.029,13.3038,4.60107,2470.693,2023-9-26T04:20:56Z
2023-09-26T02:21:36Z,42.805,6.029,13.3038,4.60119,2470.693,2023-9-26T04:23:59Z
2023-09-26T02:24:40Z,42.805,6.029,13.3039,4.60113,2470.717,2023-9-26T04:27:02Z
2023-09-26T02:27:43Z,42.805,6.029,13.3039,4.60119,2470.73,2023-9-26T04:30:06Z
2023-09-26T02:30:46Z,42.805,6.029,13.3046,4.60122,2470.707,2023-9-26T04:33:09Z
2023-09-26T02:33:49Z,42.805,6.029,13.3043,4.60118,2470.717,2023-9-26T04:36:12Z
2023-09-26T02:36:52Z,42.805,6.029,13.3054,4.60112,2470.717,2023-9-26T04:39:15Z
2023-09-26T02:39:55Z,42.805,6.029,13.3047,4.60133,2470.684,2023-9-26T04:42:18Z
2023-09-26T02:42:58Z,42.805,6.029,13.3061,4.60119,2470.707,2023-9-26T04:45:21Z
2023-09-26T02:46:01Z,42.805,6.029,13.3058,4.60115,2470.693,2023-9-26T04:48:24Z
2023-09-26T02:49:04Z,42.805,6.029,13.3048,4.60164,2470.67,2023-9-26T04:51:27Z
2023-09-26T02:52:07Z,42.805,6.029,13.3074,4.60140,2470.707,2023-9-26T04:54:30Z
2023-09-26T02:55:10Z,42.805,6.029,13.3089,4.60182,2470.707,2023-9-26T04:57:33Z
2023-09-26T02:58:13Z,42.805,6.029,13.3063,4.60185,2470.707,2023-9-26T05:00:36Z
2023-09-26T03:01:17Z,42.805,6.029,13.3098,4.60180,2470.74,2023-9-26T05:03:39Z
2023-09-26T03:04:20Z,42.805,6.029,13.3074,4.60194,2470.717,2023-9-26T05:06:43Z
2023-09-26T03:07:23Z,42.805,6.029,13.3050,4.60188,2470.73,2023-9-26T05:09:46Z
2023-09-26T03:10:26Z,42.805,6.029,13.3061,4.60166,2470.717,2023-9-26T05:12:49Z
2023-09-26T03:13:29Z,42.805,6.029,13.3064,4.60177,2470.717,2023-9-26T05:15:52Z
2023-09-26T03:16:32Z,42.805,6.029,13.3063,4.60179,2470.73,2023-9-26T05:18:55Z
2023-09-26T03:19:35Z,42.805,6.029,13.3063,4.60189,2470.73,2023-9-26T05:21:58Z
2023-09-26T03:22:38Z,42.805,6.029,13.3056,4.60201,2470.707,2023-9-26T05:25:01Z
2023-09-26T03:25:41Z,42.805,6.029,13.3073,4.60214,2470.73,2023-9-26T05:28:04Z
2023-09-26T03:28:44Z,42.805,6.029,13.3061,4.60175,2470.74,2023-9-26T05:31:07Z
2023-09-26T03:31:47Z,42.805,6.029,13.3061,4.60174,2470.717,2023-9-26T05:34:10Z
2023-09-26T03:34:50Z,42.805,6.029,13.3072,4.60134,2470.726,2023-9-26T05:37:13Z
2023-09-26T03:37:53Z,42.805,6.029,13.3076,4.60153,2470.74,2023-9-26T05:40:16Z
2023-09-26T03:40:57Z,42.805,6.029,13.3070,4.60142,2470.754,2023-9-26T05:43:19Z
2023-09-26T03:44:00Z,42.805,6.029,13.3069,4.60191,2470.754,2023-9-26T05:46:23Z
2023-09-26T03:47:03Z,42.805,6.029,13.3058,4.60172,2470.74,2023-9-26T05:49:26Z
2023-09-26T03:50:06Z,42.805,6.029,13.3062,4.60178,2470.754,2023-9-26T05:52:29Z
2023-09-26T03:53:09Z,42.805,6.029,13.3055,4.60169,2470.73,2023-9-26T05:55:32Z
2023-09-26T03:56:12Z,42.805,6.029,13.3057,4.60165,2470.763,2023-9-26T05:58:35Z
2023-09-26T03:59:15Z,42.805,6.029,13.3056,4.60138,2470.717,2023-9-26T06:01:38Z
2023-09-26T04:02:18Z,42.805,6.029,13.3056,4.60167,2470.74,2023-9-26T06:04:41Z
2023-09-26T04:05:21Z,42.805,6.029,13.3062,4.60162,2470.754,2023-9-26T06:07:44Z
2023-09-26T04:08:24Z,42.805,6.029,13.3045,4.60154,2470.763,2023-9-26T06:10:47Z
2023-09-26T04:11:27Z,42.805,6.029,13.3061,4.60165,2470.74,2023-9-26T06:13:50Z
2023-09-26T04:14:31Z,42.805,6.029,13.3061,4.60187,2470.717,2023-9-26T06:16:53Z
2023-09-26T04:17:34Z,42.805,6.029,13.3056,4.60202,2470.726,2023-9-26T06:19:56Z
2023-09-26T04:20:37Z,42.805,6.029,13.3075,4.60202,2470.717,2023-9-26T06:23:00Z
2023-09-26T04:23:40Z,42.805,6.029,13.3057,4.60170,2470.717,2023-9-26T06:26:03Z
2023-09-26T04:26:43Z,42.805,6.029,13.3078,4.60179,2470.777,2023-9-26T06:29:06Z
2023-09-26T04:29:46Z,42.805,6.029,13.3051,4.60170,2470.777,2023-9-26T06:32:09Z
2023-09-26T04:32:49Z,42.805,6.029,13.3054,4.60204,2470.754,2023-9-26T06:35:12Z
2023-09-26T04:35:52Z,42.805,6.029,13.3070,4.60173,2470.754,2023-9-26T06:38:15Z
2023-09-26T04:38:55Z,42.805,6.029,13.3085,4.60170,2470.74,2023-9-26T06:41:18Z
2023-09-26T04:41:58Z,42.805,6.029,13.3067,4.60175,2470.73,2023-9-26T06:44:21Z
2023-09-26T04:45:01Z,42.805,6.029,13.3070,4.60192,2470.754,2023-9-26T06:47:24Z
2023-09-26T04:48:04Z,42.805,6.029,13.3068,4.60155,2470.754,2023-9-26T06:50:27Z
2023-09-26T04:51:08Z,42.805,6.029,13.3067,4.60158,2470.717,2023-9-26T06:53:30Z
2023-09-26T04:54:11Z,42.805,6.029,13.3048,4.60144,2470.754,2023-9-26T06:56:34Z
2023-09-26T04:57:14Z,42.805,6.029,13.3052,4.60133,2470.74,2023-9-26T06:59:37Z
2023-09-26T05:00:17Z,42.805,6.029,13.3043,4.60143,2470.754,2023-9-26T07:02:40Z
2023-09-26T05:03:20Z,42.805,6.029,13.3063,4.60121,2470.75,2023-9-26T07:05:43Z
2023-09-26T05:06:23Z,42.805,6.029,13.3051,4.60169,2470.74,2023-9-26T07:08:46Z
2023-09-26T05:09:26Z,42.805,6.029,13.3050,4.60138,2470.74,2023-9-26T07:11:49Z
2023-09-26T05:12:29Z,42.805,6.029,13.3048,4.60142,2470.763,2023-9-26T07:14:52Z
2023-09-26T05:15:32Z,42.805,6.029,13.3046,4.60130,2470.717,2023-9-26T07:17:55Z
2023-09-26T05:18:35Z,42.805,6.029,13.3047,4.60135,2470.74,2023-9-26T07:20:58Z
2023-09-26T05:21:38Z,42.805,6.029,13.3043,4.60137,2470.73,2023-9-26T07:24:01Z
2023-09-26T05:24:41Z,42.805,6.029,13.3057,4.60137,2470.763,2023-9-26T07:27:04Z
2023-09-26T05:27:45Z,42.805,6.029,13.3049,4.60148,2470.754,2023-9-26T07:30:07Z
2023-09-26T05:30:48Z,42.805,6.029,13.3058,4.60148,2470.74,2023-9-26T07:33:11Z
2023-09-26T05:33:51Z,42.805,6.029,13.3055,4.60154,2470.74,2023-9-26T07:36:14Z
2023-09-26T05:36:54Z,42.805,6.029,13.3045,4.60137,2470.754,2023-9-26T07:39:17Z
2023-09-26T05:39:57Z,42.805,6.029,13.3051,4.60159,2470.763,2023-9-26T07:42:20Z
2023-09-26T05:43:00Z,42.805,6.029,13.3046,4.60151,2470.763,2023-9-26T07:45:23Z
2023-09-26T05:46:03Z,42.805,6.029,13.3053,4.60144,2470.74,2023-9-26T07:48:26Z
2023-09-26T05:49:06Z,42.805,6.029,13.3044,4.60134,2470.754,2023-9-26T07:51:29Z
2023-09-26T05:52:09Z,42.805,6.029,13.3048,4.60136,2470.74,2023-9-26T07:54:32Z
2023-09-26T05:55:12Z,42.805,6.029,13.3047,4.60167,2470.754,2023-9-26T07:57:35Z
2023-09-26T05:58:15Z,42.805,6.029,13.3053,4.60139,2470.73,2023-9-26T08:00:38Z
2023-09-26T06:01:18Z,42.805,6.029,13.3046,4.60128,2470.754,2023-9-26T08:03:41Z
2023-09-26T06:04:22Z,42.805,6.029,13.3046,4.60130,2470.754,2023-9-26T08:06:44Z
2023-09-26T06:07:25Z,42.805,6.029,13.3053,4.60149,2470.777,2023-9-26T08:09:48Z
2023-09-26T06:10:28Z,42.805,6.029,13.3065,4.60161,2470.74,2023-9-26T08:12:51Z
2023-09-26T06:13:31Z,42.805,6.029,13.3081,4.60160,2470.754,2023-9-26T08:15:54Z
2023-09-26T06:16:34Z,42.805,6.029,13.3048,4.60137,2470.754,2023-9-26T08:18:57Z
2023-09-26T06:19:37Z,42.805,6.029,13.3046,4.60137,2470.754,2023-9-26T08:22:00Z
2023-09-26T06:22:40Z,42.805,6.029,13.3046,4.60129,2470.763,2023-9-26T08:25:03Z
2023-09-26T06:25:43Z,42.805,6.029,13.3053,4.60132,2470.74,2023-9-26T08:28:06Z
2023-09-26T06:28:46Z,42.805,6.029,13.3044,4.60122,2470.754,2023-9-26T08:31:09Z
2023-09-26T06:31:49Z,42.805,6.029,13.3043,4.60126,2470.74,2023-9-26T08:34:12Z
2023-09-26T06:34:52Z,42.805,6.029,13.3044,4.60129,2470.73,2023-9-26T08:37:15Z
2023-09-26T06:37:55Z,42.805,6.029,13.3046,4.60147,2470.73,2023-9-26T08:40:18Z
2023-09-26T06:40:59Z,42.805,6.029,13.3041,4.60141,2470.74,2023-9-26T08:43:21Z
2023-09-26T06:44:02Z,42.805,6.029,13.3046,4.60149,2470.74,2023-9-26T08:46:25Z
2023-09-26T06:47:05Z,42.805,6.029,13.3047,4.60138,2470.717,2023-9-26T08:49:28Z
2023-09-26T06:50:08Z,42.805,6.029,13.3043,4.60125,2470.763,2023-9-26T08:52:31Z
2023-09-26T06:53:11Z,42.805,6.029,13.3052,4.60151,2470.717,2023-9-26T08:55:34Z
2023-09-26T06:56:14Z,42.805,6.029,13.3037,4.60132,2470.73,2023-9-26T08:58:37Z
2023-09-26T06:59:17Z,42.805,6.029,13.3054,4.60143,2470.717,2023-9-26T09:01:40Z
2023-09-26T07:02:20Z,42.805,6.029,13.3071,4.60160,2470.717,2023-9-26T09:04:43Z
2023-09-26T07:05:23Z,42.805,6.029,13.3064,4.60137,2470.73,2023-9-26T09:07:46Z
2023-09-26T07:08:26Z,42.805,6.029,13.3055,4.60114,2470.717,2023-9-26T09:10:49Z
2023-09-26T07:11:29Z,42.805,6.029,13.3069,4.60140,2470.707,2023-9-26T09:13:52Z
2023-09-26T07:14:32Z,42.805,6.029,13.3059,4.60148,2470.717,2023-9-26T09:16:55Z
2023-09-26T07:17:35Z,42.805,6.029,13.3064,4.60155,2470.754,2023-9-26T09:19:58Z
2023-09-26T07:20:39Z,42.805,6.029,13.3052,4.60173,2470.707,2023-9-26T09:23:01Z
2023-09-26T07:23:42Z,42.805,6.029,13.3053,4.60140,2470.717,2023-9-26T09:26:05Z
2023-09-26T07:26:45Z,42.805,6.029,13.3052,4.60137,2470.74,2023-9-26T09:29:08Z
2023-09-26T07:29:48Z,42.805,6.029,13.3043,4.60132,2470.717,2023-9-26T09:32:11Z
2023-09-26T07:32:51Z,42.805,6.029,13.3061,4.60120,2470.693,2023-9-26T09:35:14Z
2023-09-26T07:35:54Z,42.805,6.029,13.3053,4.60158,2470.717,2023-9-26T09:38:17Z
2023-09-26T07:38:57Z,42.805,6.029,13.3054,4.60154,2470.707,2023-9-26T09:41:20Z
2023-09-26T07:42:00Z,42.805,6.029,13.3048,4.60115,2470.717,2023-9-26T09:44:23Z
2023-09-26T07:45:03Z,42.805,6.029,13.3043,4.60137,2470.693,2023-9-26T09:47:26Z
2023-09-26T07:48:06Z,42.805,6.029,13.3057,4.60185,2470.707,2023-9-26T09:50:29Z
2023-09-26T07:51:09Z,42.805,6.029,13.3056,4.60156,2470.717,2023-9-26T09:53:32Z
2023-09-26T07:54:13Z,42.805,6.029,13.3055,4.60173,2470.74,2023-9-26T09:56:35Z
2023-09-26T07:57:16Z,42.805,6.029,13.3067,4.60178,2470.717,2023-9-26T09:59:39Z
2023-09-26T08:00:19Z,42.805,6.029,13.3069,4.60165,2470.67,2023-9-26T10:02:42Z
2023-09-26T08:03:22Z,42.805,6.029,13.3070,4.60198,2470.693,2023-9-26T10:05:45Z
2023-09-26T08:06:25Z,42.805,6.029,13.3097,4.60183,2470.707,2023-9-26T10:08:48Z
2023-09-26T08:09:28Z,42.805,6.029,13.3085,4.60181,2470.67,2023-9-26T10:11:51Z
2023-09-26T08:12:31Z,42.805,6.029,13.3105,4.60170,2470.661,2023-9-26T10:14:54Z
2023-09-26T08:15:34Z,42.805,6.029,13.3098,4.60147,2470.693,2023-9-26T10:17:57Z
2023-09-26T08:18:37Z,42.805,6.029,13.3070,4.60143,2470.693,2023-9-26T10:21:00Z
2023-09-26T08:21:40Z,42.805,6.029,13.3048,4.60143,2470.67,2023-9-26T10:24:03Z
2023-09-26T08:24:43Z,42.805,6.029,13.3058,4.60134,2470.717,2023-9-26T10:27:06Z
2023-09-26T08:27:46Z,42.805,6.029,13.3051,4.60143,2470.684,2023-9-26T10:30:09Z
2023-09-26T08:30:51Z,42.805,6.029,13.3056,4.60123,2470.67,2023-9-26T10:33:14Z
2023-09-26T08:33:54Z,42.805,6.029,13.3051,4.60127,2470.684,2023-9-26T10:36:17Z
2023-09-26T08:36:57Z,42.805,6.029,13.3068,4.60127,2470.67,2023-9-26T10:39:20Z
2023-09-26T08:40:01Z,42.805,6.029,13.3063,4.60126,2470.646,2023-9-26T10:42:23Z
2023-09-26T08:43:04Z,42.805,6.029,13.3063,4.60122,2470.693,2023-9-26T10:45:27Z
2023-09-26T08:46:07Z,42.805,6.029,13.3067,4.60129,2470.684,2023-9-26T10:48:30Z
2023-09-26T08:49:10Z,42.805,6.029,13.3067,4.60132,2470.693,2023-9-26T10:51:33Z
2023-09-26T08:52:13Z,42.805,6.029,13.3063,4.60137,2470.684,2023-9-26T10:54:36Z
2023-09-26T08:55:16Z,42.805,6.029,13.3083,4.60133,2470.684,2023-9-26T10:57:39Z
2023-09-26T08:58:19Z,42.805,6.029,13.3073,4.60131,2470.646,2023-9-26T11:00:42Z
2023-09-26T09:01:22Z,42.805,6.029,13.3066,4.60127,2470.67,2023-9-26T11:03:45Z
2023-09-26T09:04:25Z,42.805,6.029,13.3080,4.60124,2470.624,2023-9-26T11:06:48Z
2023-09-26T09:07:28Z,42.805,6.029,13.3063,4.60135,2470.67,2023-9-26T11:09:51Z
2023-09-26T09:10:31Z,42.805,6.029,13.3066,4.60137,2470.646,2023-9-26T11:12:54Z
2023-09-26T09:13:34Z,42.805,6.029,13.3082,4.60140,2470.67,2023-9-26T11:15:57Z
2023-09-26T09:16:37Z,42.805,6.029,13.3078,4.60126,2470.67,2023-9-26T11:19:00Z
2023-09-26T09:19:41Z,42.805,6.029,13.3093,4.60135,2470.661,2023-9-26T11:22:03Z
2023-09-26T09:22:44Z,42.805,6.029,13.3069,4.60143,2470.684,2023-9-26T11:25:07Z
2023-09-26T09:25:47Z,42.805,6.029,13.3085,4.60152,2470.637,2023-9-26T11:28:10Z
2023-09-26T09:28:50Z,42.805,6.029,13.3082,4.60141,2470.646,2023-9-26T11:31:13Z
2023-09-26T09:31:53Z,42.805,6.029,13.3060,4.60140,2470.637,2023-9-26T11:34:16Z
2023-09-26T09:34:56Z,42.805,6.029,13.3065,4.60140,2470.624,2023-9-26T11:37:19Z
2023-09-26T09:37:59Z,42.805,6.029,13.3096,4.60169,2470.67,2023-9-26T11:40:22Z
2023-09-26T09:41:02Z,42.805,6.029,13.3095,4.60140,2470.624,2023-9-26T11:43:25Z
2023-09-26T09:44:05Z,42.805,6.029,13.3084,4.60155,2470.637,2023-9-26T11:46:28Z
2023-09-26T09:47:08Z,42.805,6.029,13.3128,4.60152,2470.646,2023-9-26T11:49:31Z
2023-09-26T09:50:11Z,42.805,6.029,13.3082,4.60155,2470.646,2023-9-26T11:52:34Z
2023-09-26T09:53:14Z,42.805,6.029,13.3098,4.60135,2470.637,2023-9-26T11:55:37Z
2023-09-26T09:56:18Z,42.805,6.029,13.3092,4.60144,2470.646,2023-9-26T11:58:40Z
2023-09-26T09:59:21Z,42.805,6.029,13.3098,4.60133,2470.661,2023-9-26T12:01:44Z
2023-09-26T10:02:24Z,42.805,6.029,13.3081,4.60128,2470.6,2023-9-26T12:04:47Z
2023-09-26T10:05:27Z,42.805,6.029,13.3086,4.60136,2470.624,2023-9-26T12:07:50Z
2023-09-26T10:08:30Z,42.805,6.029,13.3084,4.60138,2470.6,2023-9-26T12:10:53Z
2023-09-26T10:11:33Z,42.805,6.029,13.3089,4.60160,2470.624,2023-9-26T12:13:56Z
2023-09-26T10:14:36Z,42.805,6.029,13.3096,4.60136,2470.637,2023-9-26T12:16:59Z
2023-09-26T10:17:39Z,42.805,6.029,13.3082,4.60132,2470.661,2023-9-26T12:20:02Z
2023-09-26T10:20:42Z,42.805,6.029,13.3106,4.60152,2470.646,2023-9-26T12:23:05Z
2023-09-26T10:23:45Z,42.805,6.029,13.3094,4.60129,2470.624,2023-9-26T12:26:08Z
2023-09-26T10:26:48Z,42.805,6.029,13.3078,4.60139,2470.637,2023-9-26T12:29:11Z
2023-09-26T10:29:52Z,42.805,6.029,13.3099,4.60147,2470.646,2023-9-26T12:32:14Z
2023-09-26T10:32:55Z,42.805,6.029,13.3109,4.60129,2470.624,2023-9-26T12:35:18Z
2023-09-26T10:35:58Z,42.805,6.029,13.3113,4.60140,2470.624,2023-9-26T12:38:21Z
2023-09-26T10:39:01Z,42.805,6.029,13.3082,4.60152,2470.661,2023-9-26T12:41:24Z
2023-09-26T10:42:04Z,42.805,6.029,13.3081,4.60149,2470.624,2023-9-26T12:44:27Z
2023-09-26T10:45:07Z,42.805,6.029,13.3082,4.60145,2470.661,2023-9-26T12:47:30Z
2023-09-26T10:48:10Z,42.805,6.029,13.3101,4.60142,2470.624,2023-9-26T12:50:33Z
2023-09-26T10:51:13Z,42.805,6.029,13.3073,4.60137,2470.6,2023-9-26T12:53:36Z
2023-09-26T10:54:16Z,42.805,6.029,13.3077,4.60130,2470.637,2023-9-26T12:56:39Z
2023-09-26T10:57:19Z,42.805,6.029,13.3084,4.60120,2470.6,2023-9-26T12:59:42Z
2023-09-26T11:00:22Z,42.805,6.029,13.3076,4.60124,2470.684,2023-9-26T13:02:45Z
2023-09-26T11:03:25Z,42.805,6.029,13.3069,4.60130,2470.637,2023-9-26T13:05:48Z
2023-09-26T11:06:29Z,42.805,6.029,13.3106,4.60141,2470.646,2023-9-26T13:08:51Z
2023-09-26T11:09:32Z,42.805,6.029,13.3098,4.60142,2470.624,2023-9-26T13:11:55Z
2023-09-26T11:12:35Z,42.805,6.029,13.3072,4.60142,2470.624,2023-9-26T13:14:58Z
2023-09-26T11:15:38Z,42.805,6.029,13.3085,4.60125,2470.637,2023-9-26T13:18:01Z
2023-09-26T11:18:41Z,42.805,6.029,13.3078,4.60134,2470.637,2023-9-26T13:21:04Z
2023-09-26T11:21:44Z,42.805,6.029,13.3089,4.60131,2470.637,2023-9-26T13:24:07Z
2023-09-26T11:24:47Z,42.805,6.029,13.3070,4.60134,2470.661,2023-9-26T13:27:10Z
2023-09-26T11:27:50Z,42.805,6.029,13.3050,4.60146,2470.637,2023-9-26T13:30:13Z
2023-09-26T11:30:53Z,42.805,6.029,13.3074,4.60142,2470.661,2023-9-26T13:33:16Z
2023-09-26T11:33:56Z,42.805,6.029,13.3045,4.60148,2470.6,2023-9-26T13:36:19Z
2023-09-26T11:36:59Z,42.805,6.029,13.3106,4.60137,2470.637,2023-9-26T13:39:22Z
2023-09-26T11:40:03Z,42.805,6.029,13.3048,4.60138,2470.661,2023-9-26T13:42:25Z
2023-09-26T11:43:06Z,42.805,6.029,13.3081,4.60141,2470.624,2023-9-26T13:45:29Z
2023-09-26T11:46:09Z,42.805,6.029,13.3113,4.60155,2470.661,2023-9-26T13:48:32Z
2023-09-26T11:49:12Z,42.805,6.029,13.3085,4.60134,2470.6,2023-9-26T13:51:35Z
2023-09-26T11:52:15Z,42.805,6.029,13.3089,4.60140,2470.624,2023-9-26T13:54:38Z
2023-09-26T11:55:18Z,42.805,6.029,13.3071,4.60136,2470.624,2023-9-26T13:57:41Z
2023-09-26T11:58:21Z,42.805,6.029,13.3078,4.60156,2470.661,2023-9-26T14:00:44Z
2023-09-26T12:01:24Z,42.805,6.029,13.3081,4.60142,2470.624,2023-9-26T14:03:47Z
2023-09-26T12:04:27Z,42.805,6.029,13.3038,4.60151,2470.646,2023-9-26T14:06:50Z
2023-09-26T12:07:30Z,42.805,6.029,13.3040,4.60127,2470.624,2023-9-26T14:09:53Z
2023-09-26T12:10:33Z,42.805,6.029,13.3036,4.60128,2470.661,2023-9-26T14:12:56Z
2023-09-26T12:13:36Z,42.805,6.029,13.3039,4.60121,2470.646,2023-9-26T14:15:59Z
2023-09-26T12:16:40Z,42.805,6.029,13.3082,4.60136,2470.637,2023-9-26T14:19:02Z
2023-09-26T12:19:43Z,42.805,6.029,13.3073,4.60140,2470.646,2023-9-26T14:22:06Z
2023-09-26T12:22:46Z,42.805,6.029,13.3089,4.60156,2470.661,2023-9-26T14:25:09Z
2023-09-26T12:25:49Z,42.805,6.029,13.3036,4.60142,2470.67,2023-9-26T14:28:12Z
2023-09-26T12:28:52Z,42.805,6.029,13.3041,4.60146,2470.661,2023-9-26T14:31:15Z
2023-09-26T12:31:54Z,42.805,6.029,13.3035,4.60125,2470.67,2023-9-26T14:34:17Z
2023-09-26T12:34:57Z,42.805,6.029,13.3036,4.60121,2470.646,2023-9-26T14:37:20Z
2023-09-26T12:38:00Z,42.805,6.029,13.3052,4.60150,2470.661,2023-9-26T14:40:23Z
2023-09-26T12:41:03Z,42.805,6.029,13.3133,4.60122,2470.646,2023-9-26T14:43:26Z
2023-09-26T12:44:06Z,42.805,6.029,13.3048,4.60140,2470.661,2023-9-26T14:46:29Z
2023-09-26T12:47:09Z,42.805,6.029,13.3069,4.60127,2470.67,2023-9-26T14:49:32Z
2023-09-26T12:50:12Z,42.805,6.029,13.3048,4.60124,2470.646,2023-9-26T14:52:35Z
2023-09-26T12:53:15Z,42.805,6.029,13.3037,4.60136,2470.646,2023-9-26T14:55:38Z
2023-09-26T12:56:18Z,42.805,6.029,13.3039,4.60117,2470.67,2023-9-26T14:58:41Z
2023-09-26T12:59:21Z,42.805,6.029,13.3030,4.60115,2470.67,2023-9-26T15:01:44Z
2023-09-26T13:02:24Z,42.805,6.029,13.3031,4.60121,2470.707,2023-9-26T15:04:47Z
2023-09-26T13:05:27Z,42.805,6.029,13.3033,4.60120,2470.684,2023-9-26T15:07:50Z
2023-09-26T13:08:31Z,42.805,6.029,13.3032,4.60125,2470.707,2023-9-26T15:10:54Z
2023-09-26T13:11:34Z,42.805,6.029,13.3036,4.60115,2470.707,2023-9-26T15:13:57Z
2023-09-26T13:14:37Z,42.805,6.029,13.3036,4.60114,2470.707,2023-9-26T15:17:00Z
2023-09-26T13:17:40Z,42.805,6.029,13.3034,4.60121,2470.707,2023-9-26T15:20:03Z
2023-09-26T13:20:43Z,42.805,6.029,13.3034,4.60114,2470.693,2023-9-26T15:23:06Z
2023-09-26T13:23:46Z,42.805,6.029,13.3034,4.60115,2470.703,2023-9-26T15:26:09Z
2023-09-26T13:26:49Z,42.805,6.029,13.3033,4.60121,2470.693,2023-9-26T15:29:12Z
2023-09-26T13:29:52Z,42.805,6.029,13.3037,4.60115,2470.679,2023-9-26T15:32:15Z
2023-09-26T13:32:55Z,42.805,6.029,13.3036,4.60117,2470.73,2023-9-26T15:35:18Z
2023-09-26T13:35:58Z,42.805,6.029,13.3037,4.60117,2470.717,2023-9-26T15:38:21Z
2023-09-26T13:39:01Z,42.805,6.029,13.3033,4.60119,2470.707,2023-9-26T15:41:24Z
2023-09-26T13:42:05Z,42.805,6.029,13.3034,4.60135,2470.707,2023-9-26T15:44:27Z
2023-09-26T13:45:08Z,42.805,6.029,13.3035,4.60115,2470.73,2023-9-26T15:47:31Z
2023-09-26T13:48:11Z,42.805,6.029,13.3035,4.60112,2470.74,2023-9-26T15:50:34Z
2023-09-26T13:51:14Z,42.805,6.029,13.3034,4.60114,2470.693,2023-9-26T15:53:37Z
2023-09-26T13:54:17Z,42.805,6.029,13.3035,4.60117,2470.717,2023-9-26T15:56:40Z
2023-09-26T13:57:20Z,42.805,6.029,13.3034,4.60112,2470.717,2023-9-26T15:59:43Z
2023-09-26T14:00:23Z,42.805,6.029,13.3031,4.60116,2470.717,2023-9-26T16:02:46Z
2023-09-26T14:03:26Z,42.805,6.029,13.3036,4.60117,2470.693,2023-9-26T16:05:49Z
2023-09-26T14:06:29Z,42.805,6.029,13.3034,4.60117,2470.74,2023-9-26T16:08:52Z
2023-09-26T14:09:32Z,42.805,6.029,13.3034,4.60117,2470.74,2023-9-26T16:11:55Z
2023-09-26T14:12:35Z,42.805,6.029,13.3031,4.60114,2470.717,2023-9-26T16:14:58Z
2023-09-26T14:15:38Z,42.805,6.029,13.3039,4.60110,2470.717,2023-9-26T16:18:01Z
2023-09-26T14:18:42Z,42.805,6.029,13.3034,4.60125,2470.777,2023-9-26T16:21:04Z
2023-09-26T14:21:45Z,42.805,6.029,13.3034,4.60105,2470.74,2023-9-26T16:24:08Z
2023-09-26T14:24:48Z,42.805,6.029,13.3036,4.60116,2470.777,2023-9-26T16:27:11Z
2023-09-26T14:27:51Z,42.805,6.029,13.3037,4.60113,2470.754,2023-9-26T16:30:14Z
2023-09-26T14:30:54Z,42.805,6.029,13.3038,4.60105,2470.754,2023-9-26T16:33:17Z
2023-09-26T14:33:57Z,42.805,6.029,13.3034,4.60108,2470.763,2023-9-26T16:36:20Z
2023-09-26T14:37:00Z,42.805,6.029,13.3038,4.60112,2470.754,2023-9-26T16:39:23Z
2023-09-26T14:40:03Z,42.805,6.029,13.3040,4.60114,2470.777,2023-9-26T16:42:26Z
2023-09-26T14:43:06Z,42.805,6.029,13.3043,4.60107,2470.787,2023-9-26T16:45:29Z
2023-09-26T14:46:09Z,42.805,6.029,13.3037,4.60107,2470.8,2023-9-26T16:48:32Z
2023-09-26T14:49:12Z,42.805,6.029,13.3036,4.60109,2470.763,2023-9-26T16:51:35Z
2023-09-26T14:52:16Z,42.805,6.029,13.3039,4.60107,2470.8,2023-9-26T16:54:38Z
2023-09-26T14:55:19Z,42.805,6.029,13.3034,4.60108,2470.74,2023-9-26T16:57:42Z
2023-09-26T14:58:22Z,42.805,6.029,13.3044,4.60110,2470.787,2023-9-26T17:00:45Z
2023-09-26T15:01:25Z,42.805,6.029,13.3038,4.60105,2470.8,2023-9-26T17:03:48Z
2023-09-26T15:04:28Z,42.805,6.029,13.3037,4.60104,2470.763,2023-9-26T17:06:51Z
2023-09-26T15:07:31Z,42.805,6.029,13.3043,4.60112,2470.787,2023-9-26T17:09:54Z
2023-09-26T15:10:34Z,42.805,6.029,13.3039,4.60105,2470.763,2023-9-26T17:12:57Z
2023-09-26T15:13:37Z,42.805,6.029,13.3039,4.60105,2470.824,2023-9-26T17:16:00Z